CDT,Max TemperatureF,Mean TemperatureF,Min TemperatureF,Max Dew PointF,MeanDew PointF,Min DewpointF,Max Humidity, Mean Humidity, Min Humidity, Max Sea Level PressureIn, Mean Sea Level PressureIn, Min Sea Level PressureIn, Max VisibilityMiles, Mean VisibilityMiles, Min VisibilityMiles, Max Wind SpeedMPH, Mean Wind SpeedMPH, Max Gust SpeedMPH,PrecipitationIn, CloudCover, Events, WindDirDegrees
2013-6-1,68,62,55,60,52,48,85,74,63,29.96,29.74,29.63,10,10,2,22,12,30,0.07,6,Rain,270
2013-6-2,65,58,52,48,44,40,80,60,41,30.09,30.04,29.96,10,10,10,18,11,23,0.00,5,,346
2013-6-3,73,60,46,49,45,42,92,58,34,30.08,30.00,29.92,10,10,10,17,6,26,0.00,0,,149
2013-6-4,65,60,55,60,55,49,91,79,64,30.03,29.98,29.93,10,9,2,26,12,34,0.27,7,Rain,128
2013-6-5,69,62,56,59,55,50,93,77,52,30.01,29.98,29.94,10,7,2,14,8,17,0.10,7,Rain,345
2013-6-6,70,62,53,55,51,49,89,70,49,30.00,29.96,29.92,10,10,10,17,8,22,0.00,6,,342
2013-6-7,69,60,51,52,48,44,92,67,42,30.04,29.99,29.92,10,8,2,10,5,,0.00,4,,338
2013-6-8,70,60,50,58,53,48,89,74,49,29.94,29.86,29.75,10,10,3,20,8,26,0.47,4,Rain,144
2013-6-9,68,64,61,60,59,57,91,83,71,29.77,29.73,29.70,10,9,2,20,14,24,0.10,8,Rain,215
2013-6-10,77,68,58,63,59,56,93,78,53,29.91,29.85,29.78,10,7,0,10,5,,0.00,4,Fog,298
2013-6-11,86,74,63,69,64,60,90,71,49,29.90,29.82,29.70,10,10,10,22,7,52,0.00,0,,115
2013-6-12,89,77,65,70,65,51,86,68,46,29.92,29.78,29.68,10,10,7,29,12,36,0.03,3,Rain,276
2013-6-13,81,70,60,56,51,43,76,50,25,30.08,30.03,29.94,10,10,7,21,11,29,0.00,0,,352
2013-6-14,76,70,64,64,59,54,87,71,51,30.06,29.99,29.86,10,10,2,30,8,46,0.64,4,Rain,135
2013-6-15,82,72,63,69,64,56,89,74,52,29.96,29.91,29.85,10,10,7,23,10,23,0.14,2,Rain,184
2013-6-16,84,74,65,65,56,40,91,60,21,29.99,29.97,29.93,10,9,3,9,6,,0.00,2,,300
2013-6-17,88,74,61,59,54,45,87,52,22,30.01,29.97,29.92,10,10,10,14,5,16,0.00,0,,308
2013-6-18,83,72,62,57,52,45,79,50,26,30.04,30.00,29.97,10,10,10,10,6,,0.00,1,,346
2013-6-19,85,74,63,63,58,53,87,59,33,30.06,30.01,29.97,10,10,10,16,8,22,0.00,2,,148
2013-6-20,88,78,67,64,61,55,77,55,33,30.02,29.97,29.91,10,10,10,25,13,31,0.00,1,,157
2013-6-21,91,82,74,71,68,64,77,65,43,29.98,29.90,29.84,10,10,10,25,15,32,0.00,2,,164
2013-6-22,92,82,71,68,65,58,67,56,38,30.04,29.90,29.84,10,10,10,22,14,29,0.00,2,Rain,174
2013-6-23,80,74,67,69,65,59,82,70,59,29.97,29.88,29.77,10,10,4,21,11,46,0.21,4,Rain,181
2013-6-24,78,72,67,69,66,62,88,80,64,29.95,29.88,29.81,10,10,7,23,9,39,0.21,3,Rain,162
2013-6-25,87,78,70,72,68,64,87,73,48,29.83,29.77,29.72,10,10,4,17,8,22,0.08,2,Rain,157
2013-6-26,90,80,70,74,67,57,90,69,33,29.88,29.77,29.66,10,9,3,15,7,23,0.14,2,Rain,277
2013-6-27,86,76,66,66,63,57,88,66,38,29.99,29.92,29.88,10,10,10,15,7,21,0.01,1,Rain,288
2013-6-28,85,76,68,61,53,43,74,46,22,29.93,29.87,29.82,10,10,10,28,12,38,0.00,1,,317
2013-6-29,77,70,63,63,55,47,82,59,36,29.93,29.85,29.81,10,10,4,23,12,36,0.05,4,Rain,344
2013-6-30,79,68,58,55,49,37,84,56,23,30.10,30.03,29.94,10,10,7,18,7,23,0.00,0,,8